This is the latest recevied weather packets stored in our database for station/object KX4O-13. If no packets are shown the sender has not sent any weather packets the latest 10 day(s).
| Time | Temp. | Humidity | Pressure | Rain* | Wind** | Luminosity | Snow |
|---|---|---|---|---|---|---|---|
| 1777331165 | 17.78° C | 51% | 1022.6 hPa | 0 mm | - | 28 W/m² | - |
| 1777330865 | 17.78° C | 52% | 1022.4 hPa | 0 mm | - | 32 W/m² | - |
| 1777330565 | 17.78° C | 50% | 1022.4 hPa | 0 mm | - | 37 W/m² | - |
| 1777330266 | 18.33° C | 47% | 1022.3 hPa | 0 mm | - | 42 W/m² | - |
| 1777329965 | 18.33° C | 48% | 1022.4 hPa | 0 mm | - | 46 W/m² | - |
| 1777329666 | 18.89° C | 46% | 1022.3 hPa | 0 mm | - | 144 W/m² | - |
| 1777329365 | 18.89° C | 45% | 1022.3 hPa | 0 mm | - | 139 W/m² | - |
| 1777329066 | 18.89° C | 45% | 1022.3 hPa | 0 mm | - | 190 W/m² | - |
| 1777328766 | 18.89° C | 44% | 1022.3 hPa | 0 mm | - | 260 W/m² | - |
| 1777328466 | 19.44° C | 45% | 1022.4 hPa | 0 mm | - | 281 W/m² | - |
| 1777328166 | 19.44° C | 45% | 1022.3 hPa | 0 mm | - | 306 W/m² | - |
| 1777327866 | 19.44° C | 45% | 1022.4 hPa | 0 mm | - | 318 W/m² | - |
| 1777327565 | 19.44° C | 45% | 1022.4 hPa | 0 mm | - | 332 W/m² | - |
| 1777327266 | 20° C | 45% | 1022.4 hPa | 0 mm | - | 339 W/m² | - |
| 1777326966 | 20° C | 46% | 1022.3 hPa | 0 mm | - | 364 W/m² | - |
| 1777326666 | 20° C | 44% | 1022.2 hPa | 0 mm | - | 355 W/m² | - |
| 1777326365 | 19.44° C | 43% | 1022.1 hPa | 0 mm | - | 381 W/m² | - |
| 1777326066 | 20° C | 43% | 1022.2 hPa | 0 mm | - | 413 W/m² | - |
| 1777325766 | 20.56° C | 43% | 1022.2 hPa | 0 mm | - | 434 W/m² | - |
| 1777325466 | 20.56° C | 44% | 1022.2 hPa | 0 mm | - | 445 W/m² | - |
| 1777325166 | 20.56° C | 46% | 1022.2 hPa | 0 mm | - | 431 W/m² | - |
| 1777324866 | 20° C | 45% | 1022.1 hPa | 0 mm | - | 473 W/m² | - |
| 1777324566 | 20.56° C | 42% | 1022.1 hPa | 0 mm | - | 497 W/m² | - |
| 1777324266 | 20.56° C | 44% | 1022 hPa | 0 mm | - | 381 W/m² | - |
| 1777323966 | 20.56° C | 43% | 1022.1 hPa | 0 mm | - | 381 W/m² | - |
* Rain latest hour (hover to see other rain measurements)
** Current wind speed in m/s (hover to see current wind gust speed)